Weather Roundup
Issued by NWS

Home | Current Version | Previous Version | Graphics & Text | Print | Product List | Glossary Off
Versions: 1 2 3 4 5 6 7 8 9 10 11 12 13 14 15 16 17 18 19 20 21 22 23 24 25 26 27 28 29 30 31 32 33 34 35 36 37 38 39 40 41 42 43 44 45 46 47 48 49 50

154
NZUS93 KARX 241310
HRRWXR

CURRENT HOURLY OBSERVATIONS ACROSS
MUCH OF THE UPPER MISSISSIPPI VALLEY
NATIONAL WEATHER SERVICE LA CROSSE WI
800 AM CDT SAT JUN 24 2017


...SOUTHEAST MINNESOTA...


CITY           SKY/WX    TMP DP  RH WIND       PRES   REMARKS
ROCHESTER      SUNNY     56  44  64 NW17G26   30.02R
ROCHESTER/MAYO FAIR      55  43  62 W22       30.00S
WINONA         PTSUNNY   59  50  72 W8        29.98R
AUSTIN         SUNNY     55  45  67 NW14G20   30.03S
ALBERT LEA     SUNNY     55  45  67 NW12      30.05R
DODGE CENTER   SUNNY     55  43  62 W13G22    30.02S
PRESTON        MOSUNNY   54  44  69 NW13G22   30.02R
OWATONNA       SUNNY     55  45  67 NW15      30.04R
FARIBAULT      SUNNY     55  45  67 W12       30.03R
$$

...ELSEWHERE IN MINNESOTA...


CITY           SKY/WX    TMP DP  RH WIND       PRES   REMARKS
MINNEAPOLIS    SUNNY     58  43  57 NW12      30.00S
INTNL FALLS    CLOUDY    52  49  89 W8        29.89R
DULUTH         CLOUDY    53  48  83 NW12      29.89R
RED WING       PTSUNNY   57  45  62 W10       29.98S
REDWOOD FALLS  SUNNY     56  43  61 W10       30.06R
MANKATO        SUNNY     56  44  64 W9        30.05S
WORTHINGTON    SUNNY     54  45  71 W10       30.11R
FAIRMONT       SUNNY     56  43  61 W9        30.08R
$$

...SOUTHWEST WISCONSIN...


CITY           SKY/WX    TMP DP  RH WIND       PRES   REMARKS
LA CROSSE      MOSUNNY   65  51  60 NW12      29.96R
PRAIRIE DU CHI SUNNY     60  48  63 W10       29.99R
BOSCOBEL       SUNNY     63  52  67 NW9       29.98R
LONE ROCK      SUNNY     62  54  74 NW8       29.96R
PLATTEVILLE    PTSUNNY   60  53  78 W10       29.99R
FORT MC COY    SUNNY     61  49  66 W10       29.96R
CAMP DOUGLAS   MOSUNNY   59  50  72 NW9G20    29.94R
MAUSTON-NEW LI SUNNY     60  51  71 NW13G18   29.94R
VIROQUA        FAIR      58  53  83 W7        29.97S
WIS DELLS      SUNNY     60  50  69 W8        29.94S
$$

...ELSEWHERE IN WISCONSIN...


CITY           SKY/WX    TMP DP  RH WIND       PRES   REMARKS
MILWAUKEE      MOSUNNY   65  54  67 NW17G23   29.89R
MADISON        MOSUNNY   61  53  75 NW9       29.94R
GREEN BAY      LGT RAIN  61  57  87 W8        29.86R
EAU CLAIRE     SUNNY     57  49  74 W10       29.95R
BLACK RVR FLS  FAIR      60  49  66 W8        29.95S
MEDFORD        CLOUDY    54  49  84 W10       29.91S
WAUSAU         PTSUNNY   56  50  80 NW14G20   29.89R
WIS RAPIDS     SUNNY     60  50  69 NW15G21   29.93S
MARSHFIELD     MOSUNNY   56  48  74 NW13      29.91S
RICE LAKE      MOSUNNY   56  45  65 W15G21    29.97R
$$

...NORTHEAST IOWA...


CITY           SKY/WX    TMP DP  RH WIND       PRES   REMARKS
WATERLOO       SUNNY     58  46  64 W10       30.05R
DUBUQUE        SUNNY     60  49  66 NW13      30.00R
DECORAH        NOT AVBL
MASON CITY     SUNNY     57  44  62 NW16G23   30.08R
CHARLES CITY   NOT AVBL
OELWEIN        NOT AVBL
$$

...ELSEWHERE IN IOWA...


CITY           SKY/WX    TMP DP  RH WIND       PRES   REMARKS
DES MOINES     SUNNY     60  45  57 NW12      30.11R
IOWA CITY      SUNNY     63  50  62 NW12      30.06R
FORT DODGE     SUNNY     57  45  62 NW8       30.12R
MARSHALLTOWN   SUNNY     58  49  72 NW12      30.08R
CEDAR RAPIDS   SUNNY     58  51  78 NW17      30.04R
$$

...NORTHERN ILLINOIS...


CITY           SKY/WX    TMP DP  RH WIND       PRES   REMARKS
CHICAGO-OHARE  MOSUNNY   66  55  67 NW13      29.92R
CHICAGO-MIDWAY MOSUNNY   66  56  70 NW12      29.93R
MOLINE         SUNNY     64  50  60 NW14G22   30.02R
ROCKFORD       SUNNY     65  54  67 NW14      29.96R
PEORIA         SUNNY     64  55  72 NW9G18    30.03R
$$

NOTE: "FAIR" INDICATES FEW OR NO CLOUDS BELOW 12,000 FEET WITH NO
SIGNIFICANT WEATHER AND/OR OBSTRUCTIONS TO VISIBILITY. WIND
SPEEDS ARE IN MILES-PER-HOUR.




USA.gov is the U.S. government's official web portal to all federal, state and local government web resources and services.